This demonstration page uses our WeatherBlox Daily Observations layout. Learn more.

Left ArrowRight Arrow

39.51506, -84.39828

Hourly Observations for July 11, 2021

Temp ( °F °C ) Dew Point ( °F °C ) Humidity (%) Winds ( mph kmh ) Pressure ( in mb ) Visibility ( mi km ) Precip ( " mm )
2:15 am 02:15 Cloudy with Light Rain 72 22 N/A N/A ENE 6 9 29.85 1011 10 16 N/A
2:55 am 02:55 Cloudy with Rain 70 21 N/A N/A ESE 5 7 29.84 1011 4 6 N/A
3:15 am 03:15 Cloudy with Light Rain 72 22 N/A N/A SSE 6 9 29.83 1010 5 8 N/A
3:35 am 03:35 Cloudy with Light Rain 72 22 N/A N/A SSE 12 19 29.83 1010 10 16 N/A
3:55 am 03:55 Cloudy 71 21.9 71 21.8 99 99 S 12 19 29.83 1010 10 16 0.01 0.25
4:15 am 04:15 Cloudy 71 21.8 71 21.4 98 98 S 15 24 29.82 1010 10 16 0.01 0.25
4:35 am 04:35 Mostly Cloudy 71 21.6 71 21.4 99 99 S 10 17 29.82 1010 10 16 0.01 0.25
4:55 am 04:55 Cloudy 71 21.4 70 21.3 99 99 S 13 20 29.82 1010 10 16 0.02 0.51
5:15 am 05:15 Cloudy 70 21.3 70 21.2 99 99 S 10 17 29.83 1010 10 16 N/A
5:35 am 05:35 Mostly Cloudy 70 21.3 70 21.1 99 99 SSW 9 15 29.83 1010 10 16 0.01 0.25
5:55 am 05:55 Cloudy 70 21.1 70 21 99 99 SSW 9 15 29.84 1011 10 16 0.02 0.51
6:15 am 06:15 Cloudy 70 21 70 21 100 100 S 8 13 29.84 1011 10 16 0.01 0.25
6:35 am 06:35 Cloudy 70 21 70 21 100 100 S 8 13 29.84 1011 10 16 0.01 0.25
6:55 am 06:55 Mostly Cloudy 70 21 N/A N/A S 6 9 29.84 1011 10 16 0.02 0.51
7:15 am 07:15 Cloudy with Light Rain 70 21 N/A N/A S 6 9 29.85 1011 10 16 N/A
7:35 am 07:35 Cloudy with Light Rain 70 21 N/A N/A SSW 5 7 29.86 1011 10 16 0.01 0.25
7:55 am 07:55 Cloudy with Light Rain 70 21 N/A N/A SSW 5 7 29.86 1011 4 6 0.02 0.51
8:15 am 08:15 Mostly Cloudy with Light Rain 70 21 N/A N/A SSE 5 7 29.85 1011 10 16 N/A
8:35 am 08:35 Mostly Cloudy with Light Rain 70 21 N/A N/A WSW 5 7 29.85 1011 10 16 0.01 0.25
8:55 am 08:55 Cloudy 70 21 N/A N/A WSW 3 6 29.86 1011 10 16 0.02 0.51
9:15 am 09:15 Cloudy with Light Rain 70 21 N/A N/A S 5 7 29.86 1011 10 16 N/A
9:35 am 09:35 Cloudy with Drizzle 70 21 N/A N/A S 5 7 29.86 1011 5 8 0.01 0.25
9:55 am 09:55 Cloudy with Drizzle 70 21 N/A N/A SSW 5 7 29.87 1012 2 3 0.02 0.51
10:15 am 10:15 Cloudy with Light Rain 70 21 N/A N/A SSW 6 9 29.88 1012 2 3 N/A
10:35 am 10:35 Cloudy with Drizzle 70 21 N/A N/A SSW 5 7 29.88 1012 2 3 0.01 0.25
10:55 am 10:55 Cloudy 70 21 N/A N/A SSW 7 11 29.89 1012 7 11 0.01 0.25
11:15 am 11:15 Cloudy 72 22 N/A N/A SW 8 13 29.89 1012 10 16 0.01 0.25
11:35 am 11:35 Cloudy with Mist and Fog 72 22 N/A N/A SSW 9 15 29.89 1012 4 6 0.01 0.25
11:55 am 11:55 Cloudy with Haze 72 22 N/A N/A WSW 7 11 29.89 1012 5 8 0.01 0.25
12:15 pm 12:15 Cloudy 73 22.7 72 22.4 98 98 SW 8 13 29.90 1012 10 16 0.01 0.25
12:35 pm 12:35 Cloudy 74 23.1 73 22.5 96 96 WSW 7 11 29.90 1012 10 16 0.01 0.25
12:55 pm 12:55 Cloudy 74 23.4 73 22.5 95 95 W 7 11 29.91 1013 10 16 0.02 0.51
1:15 pm 13:15 Cloudy 74 23.5 72 22.4 94 94 WSW 6 9 29.90 1012 10 16 N/A
1:35 pm 13:35 Mostly Cloudy 76 24.5 73 22.6 89 89 SW 7 11 29.89 1012 10 16 N/A
1:55 pm 13:55 Mostly Cloudy 77 25 72 22.3 85 85 SW 9 15 29.89 1012 10 16 0.01 0.25
2:15 pm 14:15 Mostly Cloudy 77 25.1 72 22.2 84 84 SW 9 15 29.89 1012 10 16 N/A
2:35 pm 14:35 Partly Cloudy 78 25.7 73 22.5 83 83 SW 9 15 29.89 1012 10 16 0.01 0.25
2:55 pm 14:55 Cloudy 77 25.1 72 22.2 84 84 SW 10 17 29.89 1012 10 16 0.02 0.51
3:15 pm 15:15 Cloudy 79 26.2 73 22.7 81 81 SW 10 17 29.89 1012 10 16 0.01 0.25
3:35 pm 15:35 Mostly Cloudy 79 26.3 72 22.3 79 79 SSW 10 17 29.89 1012 10 16 0.01 0.25
3:55 pm 15:55 Mostly Cloudy 79 26.1 72 22.2 79 79 SW 10 17 29.89 1012 10 16 0.02 0.51
4:15 pm 16:15 Mostly Cloudy 78 25.8 72 22.2 81 81 SW 8 13 29.89 1012 10 16 N/A
4:35 pm 16:35 Partly Cloudy 79 26.2 72 22.3 79 79 SW 8 13 29.88 1012 10 16 0.01 0.25
4:55 pm 16:55 Partly Cloudy 79 26.2 71 21.7 76 76 WSW 8 13 29.88 1012 10 16 0.02 0.51
5:15 pm 17:15 Partly Cloudy 80 26.7 71 21.9 75 75 W 8 13 29.88 1012 10 16 N/A
5:35 pm 17:35 Partly Cloudy 80 26.6 70 21.3 73 73 WNW 7 11 29.89 1012 10 16 0.01 0.25
5:55 pm 17:55 Mostly Cloudy 79 26.3 71 21.9 77 77 WNW 5 7 29.89 1012 10 16 0.02 0.51
6:15 pm 18:15 Partly Cloudy 79 26.2 71 21.8 77 77 WNW 5 7 29.89 1012 10 16 N/A
6:35 pm 18:35 Cloudy 79 26.3 71 21.5 75 75 W 6 9 29.89 1012 10 16 0.01 0.25
6:55 pm 18:55 Partly Cloudy 79 26 70 21.3 75 75 WNW 3 6 29.89 1012 10 16 0.01 0.25
7:15 pm 19:15 Sunny 80 26.4 70 21.3 74 74 W 3 6 29.88 1012 10 16 0.01 0.25
7:35 pm 19:35 Partly Cloudy 79 26 70 21.3 75 75 WNW 3 6 29.89 1012 10 16 0.01 0.25
7:55 pm 19:55 Sunny 78 25.6 70 21.3 77 77 W 5 7 29.89 1012 10 16 0.02 0.51
8:15 pm 20:15 Partly Cloudy 77 25.1 71 21.4 80 80 W 5 7 29.90 1013 10 16 0.01 0.25
8:35 pm 20:35 Mostly Cloudy 77 24.8 71 21.9 84 84 N N/A 29.90 1013 10 16 0.02 0.51
8:55 pm 20:55 Sunny 75 24.1 73 22.7 92 92 N N/A 29.92 1013 10 16 0.02 0.51
9:15 pm 21:15 Clear 75 23.7 73 22.7 94 94 N N/A 29.92 1013 10 16 0.01 0.25
9:35 pm 21:35 Clear 73 23 73 23 100 100 N N/A 29.92 1013 10 16 0.01 0.25
9:55 pm 21:55 Partly Cloudy 73 23 N/A N/A N N/A 29.93 1013 10 16 0.02 0.51
10:15 pm 22:15 Partly Cloudy 73 23 N/A N/A N N/A 29.93 1013 10 16 N/A
10:35 pm 22:35 Clear 72 22 N/A N/A N N/A 29.94 1014 10 16 N/A
10:55 pm 22:55 Partly Cloudy 72 22 N/A N/A N N/A 29.94 1014 10 16 0.01 0.25
11:15 pm 23:15 Cloudy with Haze 72 22 N/A N/A N N/A 29.95 1014 7 11 N/A
11:35 pm 23:35 Cloudy 70 21 N/A N/A N N/A 29.95 1014 10 16 N/A
11:55 pm 23:55 Cloudy 70 21 N/A N/A N N/A 29.96 1015 10 16 0.01 0.25

Powered by AerisWeather